Theta_e
289 288 288 288 289 289 289 289 290 290 290 290 291 291 291 291 290 290 291 290 291 292 292 292 292 294 293 295 295 295 297 297 294 297 302 307 311 311 312 311 310 312 313
286 285 285 286 286 285 285 285 286 285 287 287 288 288 288 287 287 287 287 288 287 288 288 289 290 292 291 290 290 290 291 292 291 289 292 294 295 299 300 302 305 309 310
284 283 282 282 282 282 282 283 283 283 284 285 285 285 286 285 285 285 285 285 286 286 287 287 288 289 287 287 289 289 289 290 291 289 288 290 291 292 292 293 294 297 300
282 281 280 281 281 281 282 282 282 283 283 283 284 284 285 284 284 283 283 283 283 285 286 287 287 287 287 287 287 288 288 288 288 287 287 287 288 289 288 288 288 291 292
279 279 279 280 280 280 280 280 281 281 281 281 281 281 282 283 283 282 281 281 282 282 284 284 284 284 285 286 284 284 284 284 283 283 283 284 284 285 285 287 287 289 290
278 278 279 279 279 279 279 279 279 279 279 279 278 278 278 281 283 283 281 279 280 280 280 281 282 282 282 283 284 284 284 281 280 280 280 280 281 283 285 285 284 283 283
278 278 278 278 278 278 278 277 277 277 277 276 277 277 277 278 282 282 281 279 279 278 279 279 279 280 281 281 281 281 281 282 282 281 279 279 280 282 283 281 281 281 281
277 276 277 277 276 276 276 276 276 276 275 275 275 276 276 277 280 281 280 278 278 278 278 278 278 278 279 279 278 278 279 279 279 280 279 279 280 281 281 282 281 281 282
275 275 276 276 276 275 274 274 275 275 275 275 276 275 275 275 279 279 278 277 276 276 276 276 276 276 278 280 277 276 276 277 279 281 281 282 282 282 282 280 278 277 276
274 274 275 275 274 273 274 274 274 275 274 275 275 275 275 274 277 278 278 275 273 274 274 275 276 275 278 279 276 276 274 274 275 276 276 277 278 279 281 280 279 277 277
274 273 273 273 273 273 273 273 273 273 273 273 272 272 273 273 273 276 276 274 274 273 273 273 274 276 278 278 278 274 274 275 275 272 273 273 274 275 277 279 280 279 277
271 271 271 272 273 272 272 272 272 272 271 270 270 270 270 271 273 273 274 275 275 272 272 272 273 277 277 276 274 275 276 274 270 269 269 269 270 271 273 273 273 273 275
270 269 270 271 271 271 271 270 269 270 269 268 268 267 267 269 270 271 273 274 273 272 272 274 275 274 273 271 272 273 271 268 267 266 266 267 269 270 271 270 272 272 272
268 269 269 269 269 269 270 269 269 268 267 267 266 266 266 267 267 270 272 271 272 272 273 270 270 269 269 269 268 268 268 267 266 265 266 267 268 267 267 268 267 268 267
268 268 268 268 268 267 268 268 268 268 269 267 266 266 263 262 267 272 272 270 269 272 267 261 262 263 263 264 264 265 265 265 264 265 264 264 264 265 265 267 266 266 264
266 266 266 265 266 266 265 265 269 269 269 269 269 269 268 269 271 271 272 272 273 270 255 253 258 260 260 261 261 262 263 263 263 264 263 263 263 263 263 265 265 264 263
265 265 264 264 264 264 264 263 262 263 266 267 267 268 268 269 269 270 271 271 267 264 250 253 257 258 259 260 260 260 260 262 263 262 262 262 262 262 262 262 263 263 263
262 262 263 263 263 262 262 261 261 259 256 257 262 265 266 267 268 269 269 264 254 254 250 251 253 256 257 258 258 258 259 260 260 260 261 261 261 261 261 261 262 262 263
262 261 262 261 261 261 260 259 259 257 256 256 257 260 262 264 266 267 266 253 250 251 250 250 253 255 256 256 257 257 257 258 258 258 259 259 260 260 260 261 262 262 263
261 261 260 259 258 258 258 258 257 256 256 255 255 256 254 254 252 252 253 249 248 252 253 251 252 253 254 254 255 255 256 256 257 257 258 259 259 260 260 261 261 261 262
258 259 258 258 255 255 256 255 257 256 254 253 255 257 263 260 253 249 252 253 251 251 253 252 253 253 254 254 254 254 255 256 256 257 257 258 259 259 260 261 261 261 263
256 256 256 255 256 256 255 255 255 254 254 252 253 254 262 255 252 253 253 253 254 253 254 254 254 254 254 254 254 254 254 254 255 256 256 257 258 258 259 260 261 262 263
254 255 255 256 256 256 255 254 252 252 252 251 252 253 252 251 252 252 253 254 253 254 254 253 253 253 254 254 254 254 253 254 255 256 256 256 256 257 258 260 261 263 267
255 255 255 254 253 252 251 250 250 251 251 252 251 252 252 253 253 254 254 254 254 254 254 254 254 253 253 253 254 254 254 254 255 255 255 256 255 258 259 262 264 267 268
253 253 253 253 251 250 248 249 249 249 250 251 252 252 253 253 253 254 254 254 254 254 254 254 254 253 252 252 252 253 253 255 254 254 255 257 258 260 262 263 266 266 268
251 251 250 249 247 247 248 249 250 250 251 252 252 253 253 253 254 254 254 254 254 254 253 254 253 252 252 252 252 253 254 257 257 257 260 261 262 262 263 265 266 267 267
Wind_Speed
7 7 8 8 9 9 9 8 8 8 8 8 8 8 8 9 10 8 7 8 8 7 7 7 7 8 7 7 7 7 7 7 7 8 9 10 11 12 10 7 7 8 8
7 8 8 9 9 9 9 8 7 7 6 6 6 7 8 10 9 10 9 9 9 9 8 8 8 7 7 8 6 7 6 5 4 14 9 7 10 10 12 14 10 9 9
7 8 7 7 7 7 7 6 6 6 6 7 7 7 9 9 9 8 8 8 7 7 7 8 9 9 8 7 6 7 6 7 6 7 11 7 8 7 12 12 12 12 9
7 6 7 6 6 6 6 6 6 6 6 7 7 7 8 9 9 8 7 7 7 7 7 8 8 9 9 10 8 7 9 8 8 9 10 9 8 7 6 9 13 9 12
7 7 6 6 6 6 6 6 6 7 7 7 7 8 7 9 8 7 7 6 6 7 6 8 7 6 15 12 8 9 9 8 8 8 10 11 9 10 11 11 14 14 13
6 6 6 6 6 6 7 7 8 8 8 7 8 8 7 6 12 12 9 6 6 6 7 7 7 7 11 14 14 14 12 9 10 9 9 11 13 12 11 12 13 13 13
8 6 6 6 7 6 6 7 9 7 5 6 6 5 6 5 12 12 12 5 5 6 6 6 6 6 7 8 12 15 12 15 15 13 12 11 14 13 15 15 15 15 17
8 7 6 6 7 6 6 6 4 8 7 4 5 5 5 6 12 13 13 6 5 6 7 7 8 9 9 13 12 11 11 10 10 10 12 13 14 15 15 15 18 20 17
9 7 6 5 6 7 7 6 5 8 5 6 5 5 6 7 13 14 11 6 8 7 7 8 9 9 16 21 14 14 13 11 12 20 22 26 27 28 23 13 12 14 18
9 8 6 5 7 6 6 6 5 5 7 5 6 5 6 7 12 14 13 5 7 6 6 8 11 12 20 23 14 13 13 13 15 14 12 14 17 15 21 13 11 13 14
9 8 7 6 7 6 7 5 5 6 8 3 6 6 6 8 8 13 15 7 6 7 7 7 7 19 22 23 22 11 15 18 16 12 11 10 11 11 10 9 11 10 12
8 8 6 5 5 4 6 5 6 6 7 5 6 4 5 6 9 11 12 12 13 7 8 7 8 20 21 22 17 20 22 18 9 9 9 9 9 9 9 11 16 16 15
8 8 7 6 6 5 5 6 5 6 5 4 3 4 3 4 4 9 11 14 13 9 8 13 19 20 20 13 16 18 14 7 8 9 9 10 10 11 13 12 12 15 17
8 8 7 6 6 5 4 4 5 4 4 3 2 1 2 3 4 4 5 5 8 8 10 8 14 15 13 12 9 10 8 8 9 10 10 11 11 10 10 10 11 12 13
9 7 7 6 5 5 4 3 4 4 2 2 1 1 1 2 4 9 9 6 5 9 8 4 5 5 6 5 6 7 7 8 9 9 10 12 11 11 11 10 10 12 12
9 7 6 5 5 4 3 3 5 3 2 0 1 1 1 6 9 11 12 13 15 17 4 2 4 5 6 7 7 7 7 9 9 10 11 11 12 12 13 12 11 11 13
8 8 5 5 5 4 4 3 3 1 3 2 2 4 6 7 9 11 12 13 13 10 1 2 5 6 7 7 7 8 9 8 11 9 11 11 12 12 15 13 12 13 14
6 7 5 4 5 5 4 3 2 2 1 2 5 6 6 8 10 11 10 9 5 4 2 2 3 5 6 7 8 8 9 9 9 10 11 11 12 12 13 14 13 15 15
6 5 5 4 3 3 3 2 1 2 2 3 2 4 4 10 11 11 10 2 4 3 3 4 4 5 6 7 7 8 9 10 10 11 11 11 12 12 14 14 15 20 21
5 8 6 4 3 3 2 3 2 2 3 3 3 4 2 2 2 3 3 3 3 5 4 4 4 4 6 6 7 8 9 10 10 10 11 11 12 12 14 16 15 17 17
5 4 6 3 2 2 2 3 3 3 4 3 5 5 13 6 3 3 4 5 5 5 5 4 6 6 6 7 7 8 9 10 10 11 11 12 12 13 14 15 16 17 18
4 4 4 4 4 4 4 4 4 4 5 5 5 5 14 3 3 5 6 7 6 6 5 6 7 7 7 8 8 9 10 11 11 11 11 12 13 14 14 15 17 18 19
3 4 4 4 4 4 4 4 4 5 5 5 5 6 4 4 5 6 7 7 6 7 6 6 8 9 8 8 8 8 10 11 11 11 13 13 14 14 15 16 18 19 18
5 5 5 4 3 4 4 5 5 6 6 6 5 6 6 6 6 8 8 7 7 8 7 7 8 11 10 10 9 9 10 11 11 12 16 14 15 17 16 18 19 21 19
4 5 5 5 4 5 4 5 5 5 6 6 6 6 6 6 8 8 7 7 8 8 9 9 8 11 13 14 14 16 18 22 18 18 12 16 19 23 19 18 18 20 21
5 5 5 4 4 5 5 6 7 6 6 6 6 7 7 7 8 8 8 8 8 9 10 9 11 13 15 14 16 18 20 22 20 22 15 15 15 15 16 19 24 18 20
Wind_Direction
76 70 71 68 70 70 68 63 64 66 63 62 63 62 55 54 43 43 44 35 39 34 28 26 9 11 2 18 358 5 354 359 317 313 328 343 337 341 328 302 287 273 272
82 76 73 76 75 76 72 63 55 56 41 46 57 63 63 63 52 48 43 32 28 25 15 13 16 12 25 12 4 357 340 332 326 301 309 329 323 326 311 309 309 304 292
87 87 80 75 76 75 73 64 61 57 49 49 50 52 77 63 55 43 35 29 25 27 20 13 5 11 8 4 3 357 340 335 328 298 305 338 322 327 323 312 306 300 295
103 99 96 90 89 81 74 67 64 62 64 65 56 46 70 62 48 40 34 28 21 12 18 19 15 15 7 1 355 358 349 348 332 315 311 319 324 324 304 321 315 316 305
112 108 102 94 87 85 80 73 65 55 56 60 67 57 39 54 38 30 25 19 12 19 14 15 15 355 16 7 358 349 345 340 327 321 322 318 321 331 329 326 312 317 308
109 109 111 103 99 92 87 81 72 56 43 51 55 59 47 56 43 37 32 21 16 25 20 1 1 10 2 354 349 346 344 336 323 323 315 307 313 319 320 320 309 315 315
125 118 113 108 99 89 86 79 82 69 59 50 43 51 70 41 37 34 41 24 24 21 14 12 1 359 343 346 344 339 331 323 323 312 303 303 308 316 314 311 306 296 287
126 122 119 116 108 102 87 87 84 102 81 76 52 45 37 50 32 28 32 29 29 23 15 3 354 347 350 342 334 336 328 326 315 311 308 306 301 301 297 295 297 292 284
132 126 122 123 122 121 113 118 97 88 93 90 69 45 46 42 29 25 28 23 24 14 5 358 349 351 339 340 337 326 321 316 314 312 310 312 311 306 302 297 292 296 294
133 128 117 115 113 98 108 101 90 99 91 74 88 54 45 52 20 22 31 19 2 354 357 351 351 344 338 336 332 328 326 326 322 321 325 318 309 297 298 284 288 287 291
120 115 112 113 114 122 115 107 111 93 89 81 78 56 38 38 15 22 20 14 346 353 343 345 342 334 334 337 339 340 319 321 334 328 318 320 316 314 313 310 309 302 293
113 117 116 104 112 114 117 112 95 91 91 69 60 55 26 21 7 10 4 357 352 342 341 333 317 329 338 336 331 322 326 336 322 318 316 308 308 309 316 315 301 292 290
126 132 130 120 122 120 119 110 92 82 75 68 53 38 1 2 352 347 341 351 346 342 330 319 334 337 331 329 328 328 339 321 317 313 307 303 308 309 307 302 296 299 292
139 137 134 131 120 108 104 105 105 110 102 89 62 13 333 341 333 304 336 333 328 325 325 9 340 334 330 329 325 328 323 318 315 307 305 306 307 307 302 304 303 301 295
142 142 137 136 137 130 118 127 126 107 91 138 201 217 268 298 304 333 340 331 314 337 10 13 338 325 323 324 322 318 320 318 314 312 310 308 307 306 303 307 299 299 294
148 154 155 144 141 134 140 117 73 94 58 273 355 318 291 306 321 335 332 329 347 346 47 344 319 319 320 319 319 320 313 307 309 310 306 304 305 307 304 303 296 294 293
142 147 146 143 144 148 141 136 150 9 7 8 332 335 319 317 326 324 323 340 350 357 31 287 314 318 311 311 306 303 302 304 305 298 298 299 301 300 301 298 297 293 288
115 129 139 146 148 142 141 151 157 171 208 275 316 309 301 317 316 318 316 5 335 335 229 259 271 291 296 296 298 301 301 300 299 298 296 294 293 294 297 295 292 291 289
145 146 140 137 133 136 144 152 175 200 227 234 242 300 298 311 309 303 317 178 242 264 249 258 245 277 283 287 293 295 294 293 296 295 292 292 296 297 292 289 288 292 290
151 145 149 148 149 165 167 181 200 231 251 258 281 274 240 270 248 241 229 225 246 256 254 242 253 257 271 284 287 286 287 289 292 292 291 292 291 289 288 292 292 293 291
154 151 156 151 144 178 181 202 221 218 229 228 256 255 274 272 253 245 287 280 252 260 264 259 275 269 273 274 274 277 280 284 287 288 290 291 290 293 292 289 289 290 287
157 158 163 175 184 200 204 209 218 224 232 238 258 259 289 288 258 265 262 256 256 250 253 261 267 263 263 266 270 274 279 281 284 286 287 290 294 292 290 289 290 292 292
164 178 183 191 200 213 223 220 224 234 241 242 247 265 261 248 248 253 259 262 258 261 256 245 255 265 261 257 256 261 271 275 277 284 287 292 292 290 287 289 290 290 299
187 192 195 201 203 218 227 234 238 235 243 252 246 249 253 255 259 263 263 269 269 269 263 257 256 257 266 264 265 263 265 269 274 278 282 283 284 288 289 289 292 302 299
191 185 202 209 213 227 230 245 247 243 240 241 254 251 259 255 257 259 263 264 266 267 268 262 259 261 261 261 260 268 271 277 274 274 276 274 277 281 284 289 300 301 307
197 199 213 206 220 223 228 243 245 235 243 249 247 249 250 257 261 267 268 264 263 264 264 264 264 260 264 268 267 269 274 280 283 279 280 283 288 289 290 298 305 301 309